Omaha, NE

9:50 PM CST on December 09, 2016 (GMT -0600)
Eppley Airfield

Weather History for KOMA - November, 2013

Change the Weather History Date:

Tuesday, November 19, 2013

  Actual Average Record
Temperature  
Mean Temperature 48 °F 37 °F  
Max Temperature 62 °F 47 °F 73 °F (2007)
Min Temperature 34 °F 27 °F 1 °F (1914)
Degree Days  
Heating Degree Days 17 28  
Month to date heating degree days 424 441  
Since 1 July heating degree days 831 926  
Cooling Degree Days 0 0  
Month to date cooling degree days 0 0  
Year to date cooling degree days 1294 1112  
Moisture  
Dew Point 26 °F    
Average Humidity 50    
Maximum Humidity 75    
Minimum Humidity 25    
Precipitation  
Precipitation 0.00 in 0.05 in 1.88 in (1953)
Month to date precipitation 1.03 1.10  
Year to date precipitation 28.77 29.04  
Snow  
Snow 0.00 in 0.10 in - ()
Month to date snowfall T 1.0  
Since 1 July snowfall T 1.3  
Snow Depth 0.00 in    
Sea Level Pressure  
Sea Level Pressure 30.02 in    
Wind  
Wind Speed 17 mph (SSE)    
Max Wind Speed 32 mph    
Max Gust Speed 38 mph    
Visibility 10 miles    
Events      
T = Trace of Precipitation, MM = Missing Value Source: NWS Daily Summary

Daily Weather History Graph

Daily Weather History Graph

Search for Another Location

Airport or City:

Trip Planner

Search our weather history database for the weather conditions in past years. The results will help you decide how hot, cold, wet, or windy it might be!

Date:

Astronomy

Nov. 19, 2013 Rise Set
Actual Time 7:16 AM CST 5:00 PM CST
Civil Twilight 6:46 AM CST 5:30 PM CST
Nautical Twilight 6:13 AM CST 6:04 PM CST
Astronomical Twilight 5:40 AM CST 6:37 PM CST
Moon 6:52 PM CST (11/19) 8:57 AM CST (11/19)
Length of Visible Light 10h 43m
Length of Day
9h 43m
Waning Gibbous, 96% of the Moon is Illuminated
Nov 19
Waning Gibbous
Nov 25
Last Quarter
Dec 2
New
Dec 9
First Quarter
Dec 17
Full

Hourly Weather History & Observations

Time (CST) Temp. Windchill Dew Point Humidity Pressure Visibility Wind Dir Wind Speed Gust Speed Precip Events Conditions
12:52 AM 35.1 °F 30.1 °F 26.1 °F 70% 30.20 in 10.0 mi SSE 5.8 mph - N/A   Scattered Clouds
1:52 AM 36.0 °F 30.3 °F 26.1 °F 67% 30.19 in 10.0 mi SSE 6.9 mph - N/A   Scattered Clouds
2:52 AM 37.0 °F 30.4 °F 26.1 °F 65% 30.19 in 10.0 mi SSE 9.2 mph - N/A   Partly Cloudy
3:52 AM 37.9 °F 30.5 °F 26.1 °F 62% 30.17 in 10.0 mi SSE 11.5 mph - N/A   Partly Cloudy
4:52 AM 37.0 °F 30.4 °F 25.0 °F 62% 30.17 in 10.0 mi SSE 9.2 mph - N/A   Scattered Clouds
5:52 AM 34.0 °F 27.2 °F 26.1 °F 73% 30.16 in 10.0 mi SSE 8.1 mph - N/A   Scattered Clouds
6:52 AM 35.1 °F 27.4 °F 26.1 °F 70% 30.16 in 10.0 mi SSE 10.4 mph - N/A   Scattered Clouds
7:52 AM 39.0 °F 31.8 °F 26.1 °F 60% 30.14 in 10.0 mi South 11.5 mph - N/A   Scattered Clouds
8:52 AM 43.0 °F 35.7 °F 27.0 °F 53% 30.12 in 10.0 mi South 15.0 mph - N/A   Scattered Clouds
9:52 AM 46.9 °F - 28.0 °F 48% 30.11 in 10.0 mi South 17.3 mph - N/A   Scattered Clouds
10:52 AM 51.1 °F - 28.9 °F 43% 30.08 in 10.0 mi SSE 20.7 mph 25.3 mph N/A   Scattered Clouds
11:52 AM 55.9 °F - 28.9 °F 36% 30.03 in 10.0 mi South 17.3 mph 24.2 mph N/A   Scattered Clouds
12:52 PM 60.1 °F - 30.0 °F 32% 29.98 in 10.0 mi South 21.9 mph 33.4 mph N/A   Scattered Clouds
1:52 PM 61.0 °F - 28.9 °F 30% 29.94 in 10.0 mi South 19.6 mph 33.4 mph N/A   Scattered Clouds
2:52 PM 61.0 °F - 27.0 °F 27% 29.91 in 10.0 mi SSE 26.5 mph 32.2 mph N/A   Mostly Cloudy
3:52 PM 60.1 °F - 24.1 °F 25% 29.91 in 10.0 mi South 29.9 mph 38.0 mph N/A   Mostly Cloudy
4:52 PM 57.9 °F - 23.0 °F 26% 29.90 in 10.0 mi SSE 24.2 mph 32.2 mph N/A   Mostly Cloudy
5:52 PM 54.0 °F - 24.1 °F 31% 29.91 in 10.0 mi SSE 18.4 mph - N/A   Mostly Cloudy
6:52 PM 55.9 °F - 25.0 °F 30% 29.90 in 10.0 mi SSE 23.0 mph 31.1 mph N/A   Mostly Cloudy
7:52 PM 54.0 °F - 25.0 °F 33% 29.90 in 10.0 mi SSE 24.2 mph 29.9 mph N/A   Mostly Cloudy
8:52 PM 54.0 °F - 25.0 °F 33% 29.90 in 10.0 mi South 20.7 mph - N/A   Overcast
9:52 PM 54.0 °F - 25.0 °F 33% 29.90 in 10.0 mi South 25.3 mph 35.7 mph N/A   Overcast
10:52 PM 53.1 °F - 26.1 °F 35% 29.89 in 10.0 mi South 21.9 mph 29.9 mph N/A   Overcast
11:52 PM 52.0 °F - 26.1 °F 37% 29.89 in 10.0 mi South 19.6 mph 26.5 mph N/A   Mostly Cloudy